Location: Civry
(47.2902°N, 4.6156°E)
Time: 00:37:00
(UTC+00:00)

Cosmos 1763 Rocket - Pass Details

Date: 09 April 2020
Orbit: 734 x 779 km, 74.0° (Epoch: 30 May)

Event Time Altitude Azimuth Distance (km) Brightness Sun altitude
Rises 19:41:42 0° 343° (NNW) 3,230 7.5 -13.3°
Reaches altitude 10° 19:44:19 10° 353° (N) 2,293 6.5 -13.7°
Maximum altitude 19:49:00 33° 57° (ENE) 1,244 4.4 -14.4°
Enters shadow 19:51:27 22° 104° (ESE) 1,595 4.6 -14.8°
